Weather in Fort Lauderdale

United States     26°08′46″N   80°08′29″W
temp.,
°C
wind,
m/s
gust,
m/s
humid.,
%
clouds,
%
prec.,
mm/h
press.,
hPa
HPBL,
m
17 may, mon
mon1723:00+24ene6762100 0.0 10201014
02:00+24ene6765100 0.0 1019805
05:00+24ene566340 0.1 1018719
08:00+24ene565792 0.1 10201079
11:00+26ene6547100 0.0 10201612
14:00+28e7641100 0.0 10191872
17:00+28e664284 0.0 10181887
20:00+26ene5650100 0.0 10191683
18 may, tue
tue1823:00+25ene6853100 0.0 10201435
02:00+25e586190 0.2 10181038
05:00+24e5862100 0.0 1018981
08:00+25ene6861100 0.1 10191276
11:00+27e8854100 0.1 10201547
14:00+28ene8747100 0.2 10191773
17:00+28ene7845100 0.0 10181768
20:00+26e795696 0.0 10181500
19 may, wed
wed1923:00+25e696538 0.2 10191292
02:00+25ene61068100 0.6 10181200
05:00+25e695699 0.1 10171381
08:00+25e686776 0.1 10181116
11:00+28e885630 0.3 10191530
14:00+29e995182 0.5 10191783
17:00+28e9105359 0.2 10181704
20:00+27e8115712 0.3 10191433
20 may, thu
thu2023:00+25e8116616 0.4 10201223
02:00+25e8116882 0.7 10191244
05:00+24e7106791 0.5 10181233
08:00+25e7105794 0.6 10201410
11:00+26ene81050100 0.0 10211756
14:00+27ene91050100 0.0 10201794
17:00+27ene81051100 0.1 10191869
20:00+25ene81162100 0.3 10191344
21 may, fri
fri2123:00+25ene8116766 0.4 10201277
02:00+24ene81269100 0.8 10201231
05:00+24ene81269100 0.2 10191260
08:00+25ene8126679 0.4 10211325
11:00+27ene10115695 0.3 10221531
14:00+28ene9105196 0.3 10211632
17:00+27ene9115167 0.0 10211670
20:00+26ene811605 0.0 10211494